Location: Kumla
(59.1265°N, 15.1401°E)
Time: 09:16:12
(UTC+01:00)

Vanguard 1 Rocket - Pass Details

Date: 10 December 2023
Orbit: 653 x 4219 km, 34.3° (Epoch: 04 March)

Event Time Altitude Azimuth Distance (km) Brightness Sun altitude
Rises 02:11:15 0° 199° (SSW) 8,454 - -46.2°
Reaches altitude 10° 02:20:06 10° 185° (S) 7,331 - -45.3°
Exits shadow 02:24:25 14° 176° (S) 6,818 11.5 -44.9°
Maximum altitude 02:34:02 19° 150° (SSE) 5,916 11.4 -43.9°
Drops below altitude 10° 02:45:08 10° 114° (ESE) 5,760 11.7 -42.7°
Sets 02:50:36 0° 98° (E) 6,185 12.2 -42.1°
